Walnut Ridge, AR

5:00 AM CDT on April 25, 2018 (GMT -0500)
Walnut Ridge Regional

Weather History for KARG - April, 2013

Change the Weather History Date:

Monday, April 8, 2013

  Actual Average Record
Temperature  
Mean Temperature 67 °F -  
Max Temperature 75 °F 65 °F 82 °F (2001)
Min Temperature 59 °F 46 °F 26 °F (2007)
Cooling Degree Days 2    
Growing Degree Days 17 (Base 50)    
Moisture  
Dew Point 57 °F    
Average Humidity 73    
Maximum Humidity 88    
Minimum Humidity 57    
Precipitation  
Precipitation 0.00 in - - ()
Sea Level Pressure  
Sea Level Pressure 29.87 in    
Wind  
Wind Speed 13 mph (SSE)    
Max Wind Speed 28 mph    
Max Gust Speed 34 mph    
Visibility 10 miles    
Events      
Averages and records for this station are not official NWS values.
T = Trace of Precipitation, MM = Missing Value Source: NWS Daily Summary

Daily Weather History Graph

Daily Weather History Graph

Search for Another Location

Airport or City:

Astronomy

Apr. 08, 2013 Rise Set
Actual Time 6:39 AM CDT 7:31 PM CDT
Civil Twilight 6:13 AM CDT 7:57 PM CDT
Nautical Twilight 5:42 AM CDT 8:28 PM CDT
Astronomical Twilight 5:10 AM CDT 9:00 PM CDT
Moon 5:27 AM CDT (4/8) 6:08 PM CDT (4/8)
Length of Visible Light 13h 44m
Length of Day
12h 52m
Waning Crescent, 3% of the Moon is Illuminated
Apr 8
Waning Crescent
Apr 10
New
Apr 18
First Quarter
Apr 25
Full
May 2
Last Quarter

Hourly Weather History & Observations

Time (CDT) Temp. Dew Point Humidity Pressure Visibility Wind Dir Wind Speed Gust Speed Precip Events Conditions
12:15 AM 59.0 °F 53.6 °F 82% 29.89 in 10.0 mi SE 6.9 mph - N/A   Overcast
12:35 AM 59.0 °F 53.6 °F 82% 29.89 in 10.0 mi SE 5.8 mph - N/A   Overcast
12:55 AM 59.0 °F 53.6 °F 82% 29.89 in 10.0 mi SE 6.9 mph - N/A   Overcast
1:15 AM 60.8 °F 53.6 °F 77% 29.89 in 10.0 mi SE 6.9 mph - N/A   Overcast
1:35 AM 60.8 °F 53.6 °F 77% 29.89 in 10.0 mi SE 4.6 mph - N/A   Overcast
1:55 AM 60.8 °F 53.6 °F 77% 29.88 in 10.0 mi SE 6.9 mph - N/A   Overcast
2:15 AM 60.8 °F 53.6 °F 77% 29.87 in 10.0 mi SSE 9.2 mph - N/A   Overcast
2:35 AM 62.6 °F 53.6 °F 72% 29.86 in 10.0 mi SSE 10.4 mph - N/A   Overcast
2:55 AM 62.6 °F 53.6 °F 72% 29.85 in 10.0 mi SSE 11.5 mph - N/A   Overcast
3:15 AM 62.6 °F 53.6 °F 72% 29.85 in 10.0 mi South 11.5 mph - N/A   Overcast
3:35 AM 62.6 °F 53.6 °F 72% 29.85 in 10.0 mi South 12.7 mph - N/A   Overcast
3:55 AM 62.6 °F 53.6 °F 72% 29.84 in 10.0 mi South 13.8 mph - N/A   Overcast
4:15 AM 62.6 °F 53.6 °F 72% 29.84 in 10.0 mi South 12.7 mph - N/A   Overcast
4:35 AM 60.8 °F 53.6 °F 77% 29.84 in 10.0 mi South 13.8 mph - N/A   Overcast
4:55 AM 60.8 °F 55.4 °F 82% 29.85 in 10.0 mi South 13.8 mph - N/A   Overcast
5:15 AM 62.6 °F 55.4 °F 77% 29.84 in 10.0 mi South 16.1 mph - N/A   Mostly Cloudy
5:35 AM 60.8 °F 55.4 °F 82% 29.85 in 10.0 mi South 15.0 mph - N/A   Partly Cloudy
5:55 AM 60.8 °F 55.4 °F 82% 29.86 in 10.0 mi South 16.1 mph - N/A   Clear
6:15 AM 60.8 °F 55.4 °F 82% 29.87 in 10.0 mi South 15.0 mph - N/A   Mostly Cloudy
6:35 AM 62.6 °F 55.4 °F 77% 29.88 in 10.0 mi South 11.5 mph - N/A   Overcast
6:55 AM 60.8 °F 55.4 °F 82% 29.89 in 10.0 mi South 10.4 mph - N/A   Overcast
7:15 AM 60.8 °F 57.2 °F 88% 29.90 in 10.0 mi South 10.4 mph - N/A   Overcast
7:35 AM 60.8 °F 57.2 °F 88% 29.90 in 10.0 mi South 12.7 mph - N/A   Mostly Cloudy
7:55 AM 62.6 °F 57.2 °F 82% 29.91 in 10.0 mi South 11.5 mph - N/A   Partly Cloudy
8:15 AM 62.6 °F 57.2 °F 82% 29.91 in 10.0 mi South 11.5 mph - N/A   Clear
8:35 AM 62.6 °F 57.2 °F 82% 29.91 in 10.0 mi South 12.7 mph - N/A   Partly Cloudy
8:55 AM 62.6 °F 57.2 °F 82% 29.91 in 10.0 mi South 15.0 mph - N/A   Mostly Cloudy
9:15 AM 64.4 °F 59.0 °F 83% 29.91 in 10.0 mi South 15.0 mph - N/A   Partly Cloudy
9:35 AM 64.4 °F 59.0 °F 83% 29.90 in 10.0 mi South 19.6 mph 23.0 mph N/A   Scattered Clouds
9:55 AM 66.2 °F 59.0 °F 78% 29.90 in 10.0 mi South 21.9 mph - N/A   Partly Cloudy
10:15 AM 68.0 °F 60.8 °F 78% 29.90 in 10.0 mi South 21.9 mph 27.6 mph N/A   Partly Cloudy
10:35 AM 69.8 °F 60.8 °F 73% 29.90 in 10.0 mi South 21.9 mph 28.8 mph N/A   Mostly Cloudy
10:55 AM 69.8 °F 59.0 °F 68% 29.89 in 10.0 mi South 23.0 mph 31.1 mph N/A   Scattered Clouds
11:15 AM 71.6 °F 60.8 °F 69% 29.89 in 10.0 mi South 26.5 mph 34.5 mph N/A   Partly Cloudy
11:35 AM 71.6 °F 60.8 °F 69% 29.88 in 10.0 mi South 27.6 mph 33.4 mph N/A   Scattered Clouds
11:55 AM 73.4 °F 60.8 °F 65% 29.88 in 10.0 mi South 27.6 mph 32.2 mph N/A   Mostly Cloudy
12:15 PM 73.4 °F 60.8 °F 65% 29.88 in 10.0 mi South 27.6 mph 34.5 mph N/A   Mostly Cloudy
12:35 PM 73.4 °F 60.8 °F 65% 29.88 in 10.0 mi South 27.6 mph 31.1 mph N/A   Mostly Cloudy
12:55 PM 73.4 °F 60.8 °F 65% 29.88 in 10.0 mi South 25.3 mph 32.2 mph N/A   Overcast
1:15 PM 73.4 °F 60.8 °F 65% 29.87 in 10.0 mi South 25.3 mph 31.1 mph N/A   Overcast
1:35 PM 73.4 °F 60.8 °F 65% 29.87 in 10.0 mi South 24.2 mph 29.9 mph N/A   Overcast
1:55 PM 73.4 °F 57.2 °F 57% 29.87 in 10.0 mi SSW 20.7 mph 32.2 mph N/A   Mostly Cloudy
2:15 PM 75.2 °F 59.0 °F 57% 29.87 in 9.0 mi South 24.2 mph 31.1 mph N/A   Mostly Cloudy
2:35 PM 73.4 °F 59.0 °F 61% 29.87 in 10.0 mi South 20.7 mph - N/A   Overcast
2:55 PM 73.4 °F 59.0 °F 61% 29.86 in 10.0 mi South 19.6 mph 28.8 mph N/A   Overcast
3:15 PM 73.4 °F 59.0 °F 61% 29.86 in 10.0 mi South 21.9 mph 26.5 mph N/A   Overcast
3:35 PM 71.6 °F 57.2 °F 60% 29.85 in 10.0 mi South 20.7 mph 26.5 mph N/A   Overcast
3:55 PM 71.6 °F 59.0 °F 64% 29.85 in 10.0 mi South 21.9 mph 28.8 mph N/A   Overcast
4:15 PM 71.6 °F 60.8 °F 69% 29.85 in 10.0 mi South 20.7 mph 26.5 mph N/A   Overcast
4:35 PM 69.8 °F 59.0 °F 68% 29.85 in 10.0 mi South 19.6 mph 26.5 mph N/A   Overcast
4:55 PM 69.8 °F 59.0 °F 68% 29.85 in 10.0 mi South 17.3 mph 21.9 mph N/A   Overcast
5:15 PM 71.6 °F 59.0 °F 64% 29.84 in 10.0 mi South 15.0 mph 21.9 mph N/A   Overcast
5:35 PM 71.6 °F 59.0 °F 64% 29.84 in 10.0 mi South 15.0 mph 20.7 mph N/A   Overcast
5:55 PM 71.6 °F 59.0 °F 64% 29.84 in 10.0 mi South 15.0 mph - N/A   Overcast
6:15 PM 71.6 °F 60.8 °F 69% 29.84 in 10.0 mi South 13.8 mph - N/A   Mostly Cloudy
6:35 PM 71.6 °F 57.2 °F 60% 29.85 in 10.0 mi South 16.1 mph 23.0 mph N/A   Scattered Clouds
6:55 PM 71.6 °F 57.2 °F 60% 29.85 in 10.0 mi South 15.0 mph - N/A   Clear
7:15 PM 69.8 °F 59.0 °F 68% 29.85 in 10.0 mi South 11.5 mph - N/A   Clear
7:35 PM 68.0 °F 59.0 °F 73% 29.85 in 10.0 mi South 9.2 mph - N/A   Clear
7:55 PM 68.0 °F 59.0 °F 73% 29.85 in 10.0 mi South 11.5 mph - N/A   Clear
8:15 PM 68.0 °F 59.0 °F 73% 29.86 in 10.0 mi SSE 9.2 mph - N/A   Clear
8:35 PM 66.2 °F 59.0 °F 78% 29.86 in 10.0 mi SSE 10.4 mph - N/A   Clear
8:55 PM 66.2 °F 57.2 °F 73% 29.87 in 10.0 mi SSE 9.2 mph - N/A   Clear
9:15 PM 66.2 °F 59.0 °F 78% 29.88 in 10.0 mi SSE 9.2 mph - N/A   Clear
9:35 PM 64.4 °F 57.2 °F 77% 29.88 in 10.0 mi SE 6.9 mph - N/A   Clear
9:55 PM 62.6 °F 57.2 °F 82% 29.88 in 10.0 mi SE 6.9 mph - N/A   Clear
10:15 PM 62.6 °F 57.2 °F 82% 29.88 in 10.0 mi SE 8.1 mph - N/A   Clear
10:35 PM 62.6 °F 57.2 °F 82% 29.88 in 10.0 mi ESE 8.1 mph - N/A   Clear
10:55 PM 62.6 °F 57.2 °F 82% 29.88 in 10.0 mi SE 8.1 mph - N/A   Clear
11:15 PM 62.6 °F 57.2 °F 82% 29.88 in 10.0 mi SE 10.4 mph - N/A   Clear
11:35 PM 62.6 °F 57.2 °F 82% 29.87 in 10.0 mi SE 9.2 mph - N/A   Clear
11:55 PM 64.4 °F 57.2 °F 77% 29.87 in 10.0 mi SE 10.4 mph - N/A   Clear